This is the latest recevied weather packets stored in our database for station/object KG4LKY-5. If no packets are shown the sender has not sent any weather packets the latest 10 day(s).
| Time | Temp. | Humidity | Pressure | Rain* | Wind** | Luminosity | Snow |
|---|---|---|---|---|---|---|---|
| 1777780090 | 4.44° C | 100% | 1019 hPa | 0 mm | - | - | - |
| 1777779790 | 4.44° C | 100% | 1019 hPa | 0 mm | - | - | - |
| 1777779490 | 4.44° C | 100% | 1018.9 hPa | 0 mm | - | - | - |
| 1777779189 | 5° C | 100% | 1019 hPa | 0 mm | - | - | - |
| 1777778889 | 4.44° C | 100% | 1018.9 hPa | 0 mm | - | - | - |
| 1777775884 | 6.11° C | 100% | 1018.7 hPa | 0 mm | - | - | - |
| 1777775584 | 6.11° C | 100% | 1018.7 hPa | 0 mm | - | - | - |
| 1777775284 | 6.11° C | 100% | 1018.7 hPa | 0 mm | - | - | - |
| 1777774983 | 5.56° C | 100% | 1018.6 hPa | 0 mm | - | - | - |
| 1777774683 | 6.11° C | 100% | 1018.5 hPa | 0 mm | - | - | - |
| 1777772280 | 7.22° C | 94% | 1018.1 hPa | 0 mm | - | - | - |
| 1777771679 | 6.67° C | 89% | 1017.8 hPa | 0 mm | - | - | - |
| 1777771078 | 6.67° C | 78% | 1017.8 hPa | 0 mm | - | - | - |
| 1777770477 | 7.78° C | 74% | 1017.6 hPa | 0 mm | - | - | - |
| 1777769877 | 7.22° C | 74% | 1017.4 hPa | 0 mm | - | - | - |
| 1777769576 | 7.78° C | 70% | 1017.3 hPa | 0 mm | - | - | - |
| 1777768675 | 8.89° C | 60% | 1017.1 hPa | 0 mm | - | - | - |
| 1777768375 | 8.89° C | 61% | 1017.1 hPa | 0 mm | - | - | - |
| 1777768075 | 8.89° C | 62% | 1017 hPa | 0 mm | - | - | - |
| 1777767774 | 9.44° C | 54% | 1017 hPa | 0 mm | - | - | - |
| 1777767172 | 10.56° C | 56% | 1016.9 hPa | 0 mm | - | - | - |
| 1777766571 | 10° C | 51% | 1016.8 hPa | 0 mm | - | - | - |
| 1777765971 | 11.11° C | 46% | 1016.6 hPa | 0 mm | - | - | - |
| 1777765670 | 11.67° C | 47% | 1016.6 hPa | 0 mm | - | - | - |
| 1777765370 | 11.11° C | 53% | 1016.7 hPa | 0 mm | - | - | - |
* Rain since midnight (hover to see other rain measurements)
** Current wind speed in m/s (hover to see current wind gust speed)